"Pseudo-MPEC" for P11XROW

Created 2024 Sep 5 22:22:14 UT using Find_Orb

Click here for an explanation of pseudo-MPECs

 
 Astrometry: 
     P11XROW* C2024 09 03.49689500 10 57.798-09 07 26.71   ~93Eq 20.62wXNEOCPF51
     P11XROW  C2024 09 03.51455000 11 07.199-09 07 23.37   ~93Eq 20.12wXNEOCPF51
     P11XROW  C2024 09 03.52596100 11 13.272-09 07 21.05   ~93Eq 20.69wXNEOCPF51
     P11XROW  C2024 09 03.53737600 11 19.343-09 07 18.78   ~93Eq 20.85wXNEOCPF51
     P11XROW KC2024 09 04.03065900 16 04.84 -09 06 05.6    ~941M 20.2 GVNEOCPL01
     P11XROW KC2024 09 04.03402100 16 06.74 -09 06 05.1    ~941M 20.2 GVNEOCPL01
     P11XROW 1C2024 09 04.03567 00 16 07.83 -09 06 09.2    ~946b 20.4 VXNEOCP033
     P11XROW 1C2024 09 04.03664 00 16 08.38 -09 06 08.8    ~946b 20.7 VXNEOCP033
     P11XROW KC2024 09 04.03744300 16 08.67 -09 06 04.4    ~941M 20.1 GVNEOCPL01
     P11XROW 1C2024 09 04.03761 00 16 08.93 -09 06 08.6    ~946b 20.3 VXNEOCP033
     P11XROW KC2024 09 04.04086600 16 10.58 -09 06 03.9    ~941M 20.2 GVNEOCPL01
     P11XROW |C2024 09 04.19449000 17 43.830-09 03 47.60   ~945b 21.2 GVNEOCP807
     P11XROW |C2024 09 04.19889000 17 46.380-09 03 46.70   ~945b 20.8 GVNEOCP807
     P11XROW |C2024 09 04.20308000 17 48.700-09 03 45.90   ~945b 20.9 GVNEOCP807
     P11XROW 1C2024 09 04.39054700 19 38.788-09 04 27.66   ~94Ab 20.19GVNEOCPG96
     P11XROW 1C2024 09 04.39569200 19 41.729-09 04 26.36   ~94Ab 20.79GVNEOCPG96
     P11XROW 1C2024 09 04.40083300 19 44.710-09 04 25.25   ~94Ab 20.63GVNEOCPG96
     P11XROW 1C2024 09 04.40598200 19 47.622-09 04 23.34   ~94Ab 20.30GVNEOCPG96
     P11XROW !C2024 09 04.40997 00 19 50.57 -09 04 24.8    ~94AM 19.8 GVNEOCP673
     P11XROW !C2024 09 04.41187 00 19 51.68 -09 04 24.4    ~94AM       VNEOCP673
     P11XROW 1C2024 09 04.98514 00 25 48.16 -09 01 59.1    ~950b 20.6 VXNEOCP033
     P11XROW 1C2024 09 04.98599 00 25 48.68 -09 01 58.8    ~950b 20.6 VXNEOCP033
     P11XROW 1C2024 09 04.98684 00 25 49.21 -09 01 58.8    ~950b 20.3 VXNEOCP033
     P11XROW KC2024 09 05.24516400 28 35.06 -09 00 25.5    ~956b 20.9 GVNEOCPH21
     P11XROW KC2024 09 05.25075800 28 38.53 -09 00 23.6    ~956b 20.7 GVNEOCPH21
     P11XROW KC2024 09 05.25355500 28 40.27 -09 00 22.7    ~956b 21.1 GVNEOCPH21

Station data:
(033) Karl Schwarzschild Observatory, Tautenburg  (N50.980139 E11.711240)
   Germany.  Observer B. Stecklum. 1.34-m f/3 Schmidt + CCD.
(673) Table Mountain Observatory, Wrightwood  (N34.381485 W117.682170)
   US/California.  Observers J. Chesley, J. Pittichova. Measurer W. M. Owen
   Jr. 0.61-m f/16 reflector + CCD.
(807) Cerro Tololo Observatory, La Serena  (S30.169133 W70.805900)  Chile.
   Observer R. Holmes. 0.61-m f/6.5 astrograph + CCD.
(F51) Pan-STARRS 1, Haleakala  (N20.707234 W156.255910)  US/Hawaii.
   Observers J. Bulger, T. Lowe, A. Schultz, M. Willman. Measurers K.
   Chambers, S. Chastel, T. de Boer, L. Denneau, J. Fairlamb, H. Flewelling,
   M. Huber, C.-C. Lin, E. Magnier, Y. Ramanjooloo, R. Wainscoat, R. Weryk.
   1.8-m Ritchey-Chrétien + CCD.
(G96) Mt. Lemmon Survey  (N32.442729 W110.788720)  US/Arizona.  Observer E.
   J. Christensen. 1.5-m reflector + 10K CCD.
(H21) Astronomical Research Observatory, Westfield  (N39.483054 W87.968270)
   US/Illinois.  Observer R. Holmes. Measurers S. Foglia, L. Buzzi, T.
   Linder, R. Holmes. 0.76-m f/3.0 astrograph + CCD0.81-m f/4.0 astrograph +
   CCD0.61-m f/4.5 astrograph + CCD0.40-m f/5.32 astrograph + CCD.
(L01) Višnjan Observatory, Tičan  (N45.290897 E13.749300)  Croatia.
   Observers K. Korlević, D. Pujagic, V. Dobos. Measurers D. Pujagic, K.
   Korlević. 1.0-m f/2.9 reflector + CCD.

Orbital elements:  P11XROW
   Perihelion 2024 Oct 9.79800 +/- 0.0211 TT = 19:09:07 (JD 2460593.29800)
Epoch 2024 Sep  5.0 TT = JDT 2460558.5   Earth MOID: 0.0399   Ma: 0.0641
M 350.96509218 +/- 0.06             (J2000 ecliptic)             AutoNEOCP
n   0.25963872 +/- 0.00173          Peri.  239.50345 +/- 0.027
a   2.43345357 +/- 0.0108           Node   145.17037 +/- 0.008
e   0.5874368 +/- 0.00182           Incl.    2.96361 +/- 0.007
P   3.79607                H 24.43  G  0.15   U  8.5
q 1.00395318 +/- 0.000106    Q 3.86295397 +/- 0.0216
From 26 observations 2024 Sept. 3-5 (42.2 hr); mean residual 0".23
Residuals in arcseconds: 
240903 F51  .25-  .02+    240904 033  .05-  .16+    240904 673  .26+  .01+    
240903 F51  .13+  .01+    240904 L01  .13-  .51-    240904 673  .51+  .10-    
240903 F51  .16+  .07+    240904 807  .16-  .03+    240904 033  .28-  .25+    
240903 F51  .04-  .00     240904 807  .73+  .01-    240904 033  .26-  .30+    
240904 L01  .12-  .12+    240904 807  .02-  .12-    240904 033  .09-  .06+    
240904 L01  .03+  .14-    240904 G96  .18-  .08-    240905 H21  .06-  .12-    
240904 033  .11-  .01-    240904 G96  .35-  .14-    240905 H21  .10+  .05+    
240904 033  .08-  .17+    240904 G96  .08+  .40-    240905 H21  .25+  .09+    
240904 L01  .10+  .22-    240904 G96  .62-  .12+    

Ephemerides (geocentric):
Date (UTC) HH   RA             Dec           delta  r     elong  mag " sig PA
---- --------  ------------   ------------  ------ ------ -----  --- --------
2024 09 05 22  00 35 57.899   -08 55 10.44  .09571 1.0961 155.9 20.6 .229 149
2024 09 05 23  00 36 26.238   -08 54 53.33  .09555 1.0959 155.8 20.6 .233 148
2024 09 06 00  00 36 54.665   -08 54 36.01  .09539 1.0957 155.7 20.6 .237 147
2024 09 06 01  00 37 23.182   -08 54 18.49  .09523 1.0955 155.6 20.6 .241 147
2024 09 06 02  00 37 51.787   -08 54 00.77  .09507 1.0953 155.6 20.6 .245 146
2024 09 06 03  00 38 20.482   -08 53 42.84  .09491 1.0951 155.5 20.6 .249 145
2024 09 06 04  00 38 49.266   -08 53 24.71  .09475 1.0949 155.4 20.6 .254 145
2024 09 06 05  00 39 18.140   -08 53 06.36  .09459 1.0946 155.3 20.6 .258 144
2024 09 06 06  00 39 47.103   -08 52 47.81  .09443 1.0944 155.2 20.6 .262 143
2024 09 06 07  00 40 16.156   -08 52 29.04  .09427 1.0942 155.1 20.6 .267 143
2024 09 06 08  00 40 45.299   -08 52 10.07  .09411 1.0940 155.1 20.6 .272 142
2024 09 06 09  00 41 14.533   -08 51 50.87  .09396 1.0938 155.0 20.6 .276 142
2024 09 06 10  00 41 43.856   -08 51 31.46  .09380 1.0936 154.9 20.6 .281 141
2024 09 06 11  00 42 13.270   -08 51 11.84  .09364 1.0934 154.8 20.6 .286 141
2024 09 06 12  00 42 42.774   -08 50 51.99  .09349 1.0932 154.7 20.6 .291 140
2024 09 06 13  00 43 12.369   -08 50 31.93  .09333 1.0930 154.6 20.6 .295 139
2024 09 06 14  00 43 42.055   -08 50 11.64  .09318 1.0928 154.5 20.6 .300 139
2024 09 06 15  00 44 11.832   -08 49 51.13  .09302 1.0925 154.5 20.6 .306 138
2024 09 06 16  00 44 41.699   -08 49 30.40  .09287 1.0923 154.4 20.6 .311 138
2024 09 06 17  00 45 11.658   -08 49 09.44  .09272 1.0921 154.3 20.6 .316 137
2024 09 06 18  00 45 41.708   -08 48 48.25  .09256 1.0919 154.2 20.6 .321 137
2024 09 06 19  00 46 11.849   -08 48 26.83  .09241 1.0917 154.1 20.6 .327 136
2024 09 06 20  00 46 42.082   -08 48 05.19  .09226 1.0915 154.0 20.6 .332 136
2024 09 06 21  00 47 12.406   -08 47 43.31  .09211 1.0913 153.9 20.6 .338 135
2024 09 06 22  00 47 42.822   -08 47 21.19  .09196 1.0911 153.8 20.6 .344 135
2024 09 06 23  00 48 13.330   -08 46 58.85  .09181 1.0909 153.8 20.6 .349 135
2024 09 07 00  00 48 43.930   -08 46 36.26  .09166 1.0907 153.7 20.6 .355 134
2024 09 07 01  00 49 14.622   -08 46 13.44  .09151 1.0905 153.6 20.6 .361 134
2024 09 07 02  00 49 45.405   -08 45 50.37  .09136 1.0903 153.5 20.6 .367 133
2024 09 07 03  00 50 16.281   -08 45 27.07  .09121 1.0901 153.4 20.6 .373 133
2024 09 07 04  00 50 47.249   -08 45 03.52  .09106 1.0899 153.3 20.6 .379 132
2024 09 07 05  00 51 18.310   -08 44 39.73  .09091 1.0896 153.2 20.6 .385 132
2024 09 07 06  00 51 49.463   -08 44 15.70  .09077 1.0894 153.1 20.6 .392 132
2024 09 07 07  00 52 20.708   -08 43 51.41  .09062 1.0892 153.0 20.6 .398 131
2024 09 07 08  00 52 52.046   -08 43 26.88  .09047 1.0890 152.9 20.5 .405 131
2024 09 07 09  00 53 23.476   -08 43 02.10  .09033 1.0888 152.8 20.5 .411 130
2024 09 07 10  00 53 54.999   -08 42 37.07  .09018 1.0886 152.7 20.5 .418 130
2024 09 07 11  00 54 26.615   -08 42 11.78  .09004 1.0884 152.6 20.5 .424 130
2024 09 07 12  00 54 58.324   -08 41 46.24  .08990 1.0882 152.5 20.5 .431 129
2024 09 07 13  00 55 30.125   -08 41 20.44  .08975 1.0880 152.5 20.5 .438 129
2024 09 07 14  00 56 02.019   -08 40 54.38  .08961 1.0878 152.4 20.5 .445 128
2024 09 07 15  00 56 34.007   -08 40 28.07  .08947 1.0876 152.3 20.5 .452 128
2024 09 07 16  00 57 06.087   -08 40 01.49  .08933 1.0874 152.2 20.5 .459 128
2024 09 07 17  00 57 38.260   -08 39 34.65  .08919 1.0872 152.1 20.5 .466 127
2024 09 07 18  00 58 10.527   -08 39 07.55  .08904 1.0870 152.0 20.5 .474 127
2024 09 07 19  00 58 42.886   -08 38 40.18  .08890 1.0868 151.9 20.5 .481 127
2024 09 07 20  00 59 15.339   -08 38 12.55  .08877 1.0866 151.8 20.5 .489 126
2024 09 07 21  00 59 47.884   -08 37 44.65  .08863 1.0864 151.7 20.5 .496 126